EET,Max TemperatureF,Mean TemperatureF,Min TemperatureF,Max Dew PointF,MeanDew PointF,Min DewpointF,Max Humidity, Mean Humidity, Min Humidity, Max Sea Level PressureIn, Mean Sea Level PressureIn, Min Sea Level PressureIn, Max VisibilityMiles, Mean VisibilityMiles, Min VisibilityMiles, Max Wind SpeedMPH, Mean Wind SpeedMPH, Max Gust SpeedMPH,PrecipitationIn, CloudCover, Events, WindDirDegrees
2011-10-1,71,64,57,52,49,46,77,58,41,30.21,30.17,30.12,6,6,6,14,8,,0.00,2,,14
2011-10-2,73,64,55,59,54,48,94,67,49,30.12,30.08,30.04,6,6,6,18,6,,0.00,1,,60
2011-10-3,73,68,62,55,48,45,68,51,36,30.21,30.18,30.12,6,6,6,14,8,,0.00,2,,52
2011-10-4,71,63,55,52,48,41,77,58,35,30.21,30.15,30.12,,,,9,6,,0.00,,,34
2011-10-5,77,64,51,55,47,18,94,61,11,30.15,30.12,30.09,,,,12,7,,0.00,,,359
2011-10-6,77,67,57,59,54,48,82,62,36,30.12,30.08,30.04,,,,12,6,,0.00,,,34
2011-10-7,71,65,59,63,57,50,94,72,46,30.04,29.95,29.86,6,6,6,13,5,,0.00,2,,192
2011-10-8,78,73,68,63,57,54,73,60,47,29.86,29.80,29.74,6,6,6,17,11,,0.00,3,,194
2011-10-9,73,66,60,66,62,59,100,87,61,29.74,29.67,29.59,6,5,2,22,11,,0.00,6,Rain,178
2011-10-10,68,64,59,64,60,57,100,92,78,29.74,29.72,29.65,6,5,2,31,17,43,0.00,6,Rain-Thunderstorm,12
2011-10-11,64,58,53,61,55,52,94,88,82,29.92,29.83,29.68,6,6,4,22,16,,0.00,6,Rain,329
2011-10-12,64,60,57,57,51,46,94,72,55,29.98,29.92,29.86,6,6,6,17,12,,0.00,6,,283
2011-10-13,66,63,60,57,54,48,77,71,59,30.06,30.02,29.98,6,6,6,14,8,,0.00,6,Rain,255
2011-10-14,64,60,57,59,53,46,100,79,63,30.24,30.14,30.01,6,6,2,22,10,,0.00,6,Rain-Thunderstorm,17
2011-10-15,60,56,51,52,47,45,94,75,59,30.24,30.21,30.15,6,5,4,20,12,,0.00,6,Rain,31
2011-10-16,53,50,46,50,46,43,100,86,71,30.15,30.08,30.04,6,5,4,29,13,41,0.00,8,Rain,348
2011-10-17,48,45,42,45,40,37,100,83,71,30.04,29.97,29.89,6,6,2,26,17,37,0.00,6,Rain,248
2011-10-18,50,46,41,43,38,36,93,81,62,30.24,30.10,29.89,6,5,2,22,14,,0.00,6,Rain,260
2011-10-19,59,54,50,48,42,39,72,62,51,30.30,30.25,30.24,6,6,6,20,13,,0.00,3,,214
2011-10-20,62,56,51,48,46,45,77,65,52,30.24,30.21,30.18,6,5,4,10,7,,0.00,2,,220
2011-10-21,69,58,46,50,46,36,100,66,28,30.21,30.17,30.15,4,3,2,14,6,21,0.00,,,29
2011-10-22,66,60,55,54,49,46,94,68,49,30.24,30.21,30.18,6,5,2,16,9,,0.00,2,,32
2011-10-23,64,60,55,48,46,39,77,60,40,30.24,30.19,30.15,6,6,6,17,11,24,0.00,3,,38
2011-10-24,64,60,57,52,49,46,77,67,56,30.15,30.12,30.09,6,6,6,20,12,,0.00,5,,46
2011-10-25,64,60,55,50,49,45,77,67,56,30.21,30.17,30.15,6,6,6,17,9,24,0.00,6,,39
2011-10-26,60,56,53,46,43,36,72,60,51,30.30,30.24,30.21,6,6,6,20,11,29,0.00,6,,44
2011-10-27,60,56,53,39,37,36,54,50,42,30.36,30.32,30.27,6,6,6,18,13,,0.00,4,,50
2011-10-28,62,58,53,41,39,37,58,53,39,30.39,30.37,30.36,6,6,6,17,11,,0.00,3,,40
2011-10-29,59,56,53,43,39,37,67,54,45,30.36,30.33,30.30,6,6,6,16,11,,0.00,5,,35
2011-10-30,59,56,53,43,39,37,67,55,45,30.30,30.28,30.24,6,6,6,13,9,,0.00,6,,44
2011-10-31,57,54,50,45,41,39,72,63,55,30.27,30.22,30.18,6,6,6,15,10,,0.00,5,,26